Time,TemperatureF,DewpointF,PressureIn,WindDirection,WindDirectionDegrees,WindSpeedMPH,WindSpeedGustMPH,Humidity,HourlyPrecipIn,Conditions,Clouds,dailyrainin,SoftwareType,DateUTC
2013-05-13 00:01:00,53.3,43.0,30.00,NW,326,2.9,25.8,68,3.41,,,0.00,VWS V13.01,2013-05-13 04:01:00,
2013-05-13 00:06:00,53.3,43.2,30.00,NNW,342,0.0,25.8,68,3.41,,,0.00,VWS V13.01,2013-05-13 04:06:00,
2013-05-13 00:11:00,53.0,43.2,30.00,NNW,336,1.3,25.8,69,3.41,,,0.00,VWS V13.01,2013-05-13 04:11:00,
2013-05-13 00:16:00,52.8,43.2,30.00,NW,312,4.0,25.8,70,3.41,,,0.00,VWS V13.01,2013-05-13 04:16:00,
2013-05-13 00:21:00,52.6,43.2,30.00,West,263,0.0,25.8,70,3.41,,,0.00,VWS V13.01,2013-05-13 04:21:00,
2013-05-13 00:26:00,52.5,43.2,30.00,WNW,295,0.0,25.8,70,3.41,,,0.00,VWS V13.01,2013-05-13 04:26:00,
2013-05-13 00:31:00,52.2,43.0,30.01,West,280,0.0,25.8,71,3.41,,,0.00,VWS V13.01,2013-05-13 04:31:00,
2013-05-13 00:36:00,52.1,43.0,30.01,NNW,332,3.8,25.8,71,3.41,,,0.00,VWS V13.01,2013-05-13 04:36:00,
2013-05-13 00:41:00,52.1,42.9,30.01,NW,308,4.8,25.8,71,3.41,,,0.00,VWS V13.01,2013-05-13 04:41:00,
2013-05-13 00:46:00,51.8,42.6,30.01,North,4,4.3,25.8,71,3.41,,,0.00,VWS V13.01,2013-05-13 04:46:00,
2013-05-13 00:51:00,51.8,42.6,30.01,NNW,343,1.7,25.8,71,3.41,,,0.00,VWS V13.01,2013-05-13 04:51:00,
2013-05-13 00:56:00,51.7,42.4,30.01,West,281,3.1,25.8,70,3.41,,,0.00,VWS V13.01,2013-05-13 04:56:00,
2013-05-13 01:00:00,47.7,41.8,30.14,North,357,0.0,25.8,80,3.41,,,0.00,VWS V13.01,2013-05-13 05:00:00,
2013-05-13 01:01:00,51.7,42.5,30.01,WNW,298,0.0,25.8,71,3.41,,,0.00,VWS V13.01,2013-05-13 05:01:00,
2013-05-13 01:06:00,51.6,42.2,30.01,NNW,335,2.2,25.8,70,3.41,,,0.00,VWS V13.01,2013-05-13 05:06:00,
2013-05-13 01:11:00,51.4,42.2,30.01,NNW,347,3.9,25.8,71,3.41,,,0.00,VWS V13.01,2013-05-13 05:11:00,
2013-05-13 01:16:00,51.3,42.2,30.02,North,8,0.0,25.8,71,3.41,,,0.00,VWS V13.01,2013-05-13 05:16:00,
2013-05-13 01:21:00,51.3,42.3,30.02,NW,312,0.0,25.8,71,3.41,,,0.00,VWS V13.01,2013-05-13 05:21:00,
2013-05-13 01:26:00,51.1,42.4,30.02,West,277,2.6,25.8,72,3.41,,,0.00,VWS V13.01,2013-05-13 05:26:00,
2013-05-13 01:31:00,50.8,42.2,30.02,WNW,285,0.0,25.8,72,3.41,,,0.00,VWS V13.01,2013-05-13 05:31:00,
2013-05-13 01:36:00,50.9,42.5,30.02,WNW,288,0.0,25.8,73,3.41,,,0.00,VWS V13.01,2013-05-13 05:36:00,
2013-05-13 01:40:00,50.7,42.4,30.02,WNW,288,0.0,25.8,73,3.41,,,0.00,VWS V13.01,2013-05-13 05:40:00,
2013-05-13 01:45:00,50.4,42.3,30.02,NW,318,0.0,25.8,74,3.41,,,0.00,VWS V13.01,2013-05-13 05:45:00,
2013-05-13 01:50:00,50.0,42.1,30.01,North,1,0.0,25.8,74,3.41,,,0.00,VWS V13.01,2013-05-13 05:50:00,
2013-05-13 01:55:00,50.1,42.3,30.01,NNW,329,2.9,25.8,74,3.41,,,0.00,VWS V13.01,2013-05-13 05:55:00,
2013-05-13 02:00:00,50.0,42.4,30.01,WNW,294,0.0,25.8,75,3.41,,,0.00,VWS V13.01,2013-05-13 06:00:00,
2013-05-13 02:05:00,49.7,42.2,30.01,NW,307,2.5,25.8,75,3.41,,,0.00,VWS V13.01,2013-05-13 06:05:00,
2013-05-13 02:10:00,49.5,42.2,30.01,NNW,335,0.9,25.8,76,3.41,,,0.00,VWS V13.01,2013-05-13 06:10:00,
2013-05-13 02:15:00,49.4,42.2,30.01,NW,311,1.4,25.8,76,3.41,,,0.00,VWS V13.01,2013-05-13 06:15:00,
2013-05-13 02:20:00,49.3,42.1,30.01,NE,52,0.0,25.8,76,3.41,,,0.00,VWS V13.01,2013-05-13 06:20:00,
2013-05-13 02:25:00,49.2,42.2,30.01,WNW,301,3.1,25.8,77,3.41,,,0.00,VWS V13.01,2013-05-13 06:25:00,
2013-05-13 02:30:00,48.9,42.0,30.01,North,349,2.9,25.8,77,3.41,,,0.00,VWS V13.01,2013-05-13 06:30:00,
2013-05-13 02:35:00,48.8,42.1,30.01,WNW,300,2.2,25.8,78,3.41,,,0.00,VWS V13.01,2013-05-13 06:35:00,
2013-05-13 02:40:00,48.7,42.1,30.01,NNW,329,0.0,25.8,78,3.41,,,0.00,VWS V13.01,2013-05-13 06:40:00,
2013-05-13 02:45:00,48.6,42.1,30.01,WNW,295,0.0,25.8,78,3.41,,,0.00,VWS V13.01,2013-05-13 06:45:00,
2013-05-13 02:50:00,48.5,42.1,30.01,NNW,345,0.0,25.8,78,3.41,,,0.00,VWS V13.01,2013-05-13 06:50:00,
2013-05-13 02:55:00,48.4,42.0,30.02,NW,314,4.1,25.8,78,3.41,,,0.00,VWS V13.01,2013-05-13 06:55:00,
2013-05-13 03:00:00,48.5,42.2,30.01,WNW,301,2.9,25.8,79,3.41,,,0.00,VWS V13.01,2013-05-13 07:00:00,
2013-05-13 03:05:00,48.3,42.2,30.01,WNW,297,3.2,25.8,79,3.41,,,0.00,VWS V13.01,2013-05-13 07:05:00,
2013-05-13 03:10:00,48.2,42.2,30.01,WNW,285,2.7,25.8,80,3.41,,,0.00,VWS V13.01,2013-05-13 07:10:00,
2013-05-13 03:15:00,47.9,42.1,30.01,NW,311,2.2,25.8,80,3.41,,,0.00,VWS V13.01,2013-05-13 07:15:00,
2013-05-13 03:20:00,47.9,42.2,30.01,West,259,0.0,25.8,80,3.41,,,0.00,VWS V13.01,2013-05-13 07:20:00,
2013-05-13 03:25:00,47.7,42.1,30.01,WNW,295,2.7,25.8,81,3.41,,,0.00,VWS V13.01,2013-05-13 07:25:00,
2013-05-13 03:30:00,47.6,42.0,30.01,NW,321,5.3,25.8,81,3.41,,,0.00,VWS V13.01,2013-05-13 07:30:00,
2013-05-13 03:35:00,47.5,41.8,30.01,NW,314,3.2,25.8,81,3.41,,,0.00,VWS V13.01,2013-05-13 07:35:00,
2013-05-13 03:40:00,47.5,41.7,30.01,NW,311,1.4,25.8,80,3.41,,,0.00,VWS V13.01,2013-05-13 07:40:00,
2013-05-13 03:45:00,47.7,41.8,30.02,NW,326,2.2,25.8,80,3.41,,,0.00,VWS V13.01,2013-05-13 07:45:00,
2013-05-13 03:50:00,47.7,41.7,30.02,WNW,291,4.5,25.8,80,3.41,,,0.00,VWS V13.01,2013-05-13 07:50:00,
2013-05-13 03:55:00,47.7,41.6,30.02,WNW,302,5.1,25.8,79,3.41,,,0.00,VWS V13.01,2013-05-13 07:55:00,
2013-05-13 04:00:00,47.7,41.5,30.02,NW,319,2.9,25.8,79,3.41,,,0.00,VWS V13.01,2013-05-13 08:00:00,
2013-05-13 04:05:00,47.8,41.5,30.02,WNW,298,2.4,25.8,79,3.41,,,0.00,VWS V13.01,2013-05-13 08:05:00,
2013-05-13 04:10:00,47.8,41.4,30.02,NW,305,4.4,25.8,78,3.41,,,0.00,VWS V13.01,2013-05-13 08:10:00,
2013-05-13 04:15:00,47.8,41.5,30.02,NW,308,1.8,25.8,79,3.41,,,0.00,VWS V13.01,2013-05-13 08:15:00,
2013-05-13 04:20:00,47.9,41.6,30.02,WNW,298,0.0,25.8,79,3.41,,,0.00,VWS V13.01,2013-05-13 08:20:00,
2013-05-13 04:25:00,47.5,41.4,30.02,West,270,0.0,25.8,79,3.41,,,0.00,VWS V13.01,2013-05-13 08:25:00,
2013-05-13 04:30:00,47.4,41.5,30.02,WNW,291,0.0,25.8,80,3.41,,,0.00,VWS V13.01,2013-05-13 08:30:00,
2013-05-13 04:35:00,47.4,41.7,30.03,NW,309,0.0,25.8,80,3.41,,,0.00,VWS V13.01,2013-05-13 08:35:00,
2013-05-13 04:40:00,47.2,41.7,30.03,NW,309,0.0,25.8,81,3.41,,,0.00,VWS V13.01,2013-05-13 08:40:00,
2013-05-13 04:45:00,46.7,41.6,30.03,NW,309,0.0,25.8,82,3.41,,,0.00,VWS V13.01,2013-05-13 08:45:00,
2013-05-13 04:50:00,46.4,41.5,30.03,NW,309,0.0,25.8,83,3.41,,,0.00,VWS V13.01,2013-05-13 08:50:00,
2013-05-13 04:55:00,46.1,41.5,30.04,WSW,255,0.0,25.8,84,3.41,,,0.00,VWS V13.01,2013-05-13 08:55:00,
2013-05-13 05:00:00,45.8,41.4,30.04,SW,233,0.0,25.8,84,3.41,,,0.00,VWS V13.01,2013-05-13 09:00:00,
2013-05-13 05:05:00,45.6,41.2,30.04,West,276,1.1,25.8,84,3.41,,,0.00,VWS V13.01,2013-05-13 09:05:00,
2013-05-13 05:10:00,45.7,41.4,30.04,West,269,2.1,25.8,85,3.41,,,0.00,VWS V13.01,2013-05-13 09:10:00,
2013-05-13 05:15:00,45.7,41.5,30.04,WNW,288,2.9,25.8,85,3.41,,,0.00,VWS V13.01,2013-05-13 09:15:00,
2013-05-13 05:20:00,45.5,41.4,30.05,WSW,252,0.0,25.8,85,3.41,,,0.00,VWS V13.01,2013-05-13 09:20:00,
2013-05-13 05:25:00,45.5,41.5,30.05,West,280,0.0,25.8,86,3.41,,,0.00,VWS V13.01,2013-05-13 09:25:00,
2013-05-13 05:30:00,45.4,41.5,30.05,West,280,0.0,25.8,86,3.41,,,0.00,VWS V13.01,2013-05-13 09:30:00,
2013-05-13 05:35:00,45.3,41.6,30.05,WNW,290,0.0,25.8,87,3.41,,,0.00,VWS V13.01,2013-05-13 09:35:00,
2013-05-13 05:40:00,45.3,41.6,30.05,WNW,290,0.0,25.8,87,3.41,,,0.00,VWS V13.01,2013-05-13 09:40:00,
2013-05-13 05:45:00,45.3,41.6,30.05,WNW,290,0.0,25.8,87,3.41,,,0.00,VWS V13.01,2013-05-13 09:45:00,
2013-05-13 05:50:00,45.3,41.7,30.05,WNW,290,0.0,25.8,87,3.41,,,0.00,VWS V13.01,2013-05-13 09:50:00,
2013-05-13 05:55:00,45.2,41.7,30.05,WNW,290,0.0,25.8,87,3.41,,,0.00,VWS V13.01,2013-05-13 09:55:00,
2013-05-13 06:00:00,45.1,41.6,30.05,WNW,290,0.0,25.8,88,3.41,,,0.00,VWS V13.01,2013-05-13 10:00:00,
2013-05-13 06:05:00,45.2,41.8,30.05,WNW,290,0.0,25.8,88,3.41,,,0.00,VWS V13.01,2013-05-13 10:05:00,
2013-05-13 06:10:00,45.4,42.1,30.05,WNW,290,0.0,25.8,88,3.41,,,0.00,VWS V13.01,2013-05-13 10:10:00,
2013-05-13 06:15:00,45.5,42.1,30.06,WNW,290,0.0,25.8,88,3.41,,,0.00,VWS V13.01,2013-05-13 10:15:00,
2013-05-13 06:20:00,45.6,42.2,30.06,WNW,288,2.0,25.8,88,3.41,,,0.00,VWS V13.01,2013-05-13 10:20:00,
2013-05-13 06:25:00,45.6,42.3,30.06,SW,228,0.0,25.8,88,3.41,,,0.00,VWS V13.01,2013-05-13 10:25:00,
2013-05-13 06:30:00,45.6,42.3,30.06,WNW,287,2.7,25.8,88,3.41,,,0.00,VWS V13.01,2013-05-13 10:30:00,
2013-05-13 06:35:00,45.8,42.5,30.06,WNW,290,0.0,25.8,88,3.41,,,0.00,VWS V13.01,2013-05-13 10:35:00,
2013-05-13 06:40:00,46.0,42.5,30.07,West,281,0.0,25.8,88,3.41,,,0.00,VWS V13.01,2013-05-13 10:40:00,
2013-05-13 06:45:00,46.3,42.6,30.07,NW,315,1.2,25.8,87,3.41,,,0.00,VWS V13.01,2013-05-13 10:45:00,
2013-05-13 06:50:00,47.1,43.0,30.07,NW,316,0.0,25.8,86,3.41,,,0.00,VWS V13.01,2013-05-13 10:50:00,
2013-05-13 06:55:00,47.9,43.2,30.07,West,277,1.0,25.8,84,3.41,,,0.00,VWS V13.01,2013-05-13 10:55:00,
2013-05-13 07:00:00,48.7,43.5,30.07,NNW,335,4.8,25.8,82,3.41,,,0.00,VWS V13.01,2013-05-13 11:00:00,
2013-05-13 07:05:00,49.3,43.8,30.07,NNW,335,7.0,25.8,81,3.41,,,0.00,VWS V13.01,2013-05-13 11:05:00,
2013-05-13 07:10:00,50.2,44.2,30.07,NNW,332,0.0,25.8,80,3.41,,,0.00,VWS V13.01,2013-05-13 11:10:00,
2013-05-13 07:14:00,50.7,44.5,30.07,WNW,294,3.9,25.8,79,3.41,,,0.00,VWS V13.01,2013-05-13 11:14:00,
2013-05-13 07:19:00,51.3,44.7,30.07,NW,322,3.2,25.8,78,3.41,,,0.00,VWS V13.01,2013-05-13 11:19:00,
2013-05-13 07:24:00,51.7,44.7,30.08,North,349,1.7,25.8,77,3.41,,,0.00,VWS V13.01,2013-05-13 11:24:00,
2013-05-13 07:29:00,51.9,44.8,30.08,WNW,297,2.4,25.8,77,3.41,,,0.00,VWS V13.01,2013-05-13 11:29:00,
2013-05-13 07:34:00,52.2,45.0,30.08,WNW,301,1.6,25.8,76,3.41,,,0.00,VWS V13.01,2013-05-13 11:34:00,
2013-05-13 07:39:00,52.9,45.2,30.08,WNW,298,4.0,25.8,75,3.41,,,0.00,VWS V13.01,2013-05-13 11:39:00,
2013-05-13 07:44:00,53.1,45.2,30.09,WNW,294,3.4,25.8,74,3.41,,,0.00,VWS V13.01,2013-05-13 11:44:00,
2013-05-13 07:49:00,53.3,45.3,30.09,NW,322,4.6,25.8,74,3.41,,,0.00,VWS V13.01,2013-05-13 11:49:00,
2013-05-13 07:54:00,53.6,45.2,30.08,NNW,330,4.3,25.8,73,3.41,,,0.00,VWS V13.01,2013-05-13 11:54:00,
2013-05-13 07:59:00,54.4,45.6,30.08,North,354,3.0,25.8,72,3.41,,,0.00,VWS V13.01,2013-05-13 11:59:00,
2013-05-13 08:04:00,55.2,45.6,30.08,NNW,346,5.9,25.8,70,3.41,,,0.00,VWS V13.01,2013-05-13 12:04:00,
2013-05-13 08:09:00,56.2,45.9,30.09,NNW,339,5.3,25.8,68,3.41,,,0.00,VWS V13.01,2013-05-13 12:09:00,
2013-05-13 08:14:00,56.3,45.8,30.09,NW,325,4.1,25.8,68,3.41,,,0.00,VWS V13.01,2013-05-13 12:14:00,
2013-05-13 08:19:00,56.6,45.9,30.09,NW,304,4.5,25.8,67,3.41,,,0.00,VWS V13.01,2013-05-13 12:19:00,
2013-05-13 08:24:00,56.2,45.8,30.09,WNW,295,3.0,25.8,68,3.41,,,0.00,VWS V13.01,2013-05-13 12:24:00,
2013-05-13 08:29:00,56.5,45.8,30.08,NW,321,3.9,25.8,67,3.41,,,0.00,VWS V13.01,2013-05-13 12:29:00,
2013-05-13 08:34:00,57.0,46.0,30.08,West,276,2.2,25.8,67,3.41,,,0.00,VWS V13.01,2013-05-13 12:34:00,
2013-05-13 08:39:00,57.5,46.5,30.09,NW,311,4.1,25.8,67,3.41,,,0.00,VWS V13.01,2013-05-13 12:39:00,
2013-05-13 08:44:00,58.0,46.5,30.09,West,273,0.0,25.8,66,3.41,,,0.00,VWS V13.01,2013-05-13 12:44:00,
2013-05-13 08:49:00,58.8,46.7,30.09,NNW,339,4.0,25.8,64,3.41,,,0.00,VWS V13.01,2013-05-13 12:49:00,
2013-05-13 08:54:00,58.9,46.6,30.09,NW,309,4.0,25.8,64,3.41,,,0.00,VWS V13.01,2013-05-13 12:54:00,
2013-05-13 08:59:00,58.7,46.5,30.09,NW,307,8.6,25.8,64,3.41,,,0.00,VWS V13.01,2013-05-13 12:59:00,
2013-05-13 09:04:00,58.5,46.6,30.09,NW,316,6.8,25.8,65,3.41,,,0.00,VWS V13.01,2013-05-13 13:04:00,
2013-05-13 09:09:00,58.6,46.6,30.09,West,267,4.6,25.8,64,3.41,,,0.00,VWS V13.01,2013-05-13 13:09:00,
2013-05-13 09:14:00,58.6,46.3,30.09,NNW,328,4.5,25.8,64,3.41,,,0.00,VWS V13.01,2013-05-13 13:14:00,
2013-05-13 09:19:00,58.2,46.2,30.09,West,280,5.7,25.8,64,3.41,,,0.00,VWS V13.01,2013-05-13 13:19:00,
2013-05-13 09:24:00,57.2,45.3,30.08,North,353,6.6,25.8,64,3.41,,,0.00,VWS V13.01,2013-05-13 13:24:00,
2013-05-13 09:29:00,56.9,45.0,30.08,West,277,8.3,25.8,64,3.41,,,0.00,VWS V13.01,2013-05-13 13:29:00,
2013-05-13 09:34:00,57.0,45.3,30.08,West,276,6.1,25.8,65,3.41,,,0.00,VWS V13.01,2013-05-13 13:34:00,
2013-05-13 09:39:00,57.2,44.6,30.09,NNW,338,7.7,25.8,63,3.41,,,0.00,VWS V13.01,2013-05-13 13:39:00,
2013-05-13 09:44:00,57.6,44.8,30.09,West,280,4.5,25.8,62,3.41,,,0.00,VWS V13.01,2013-05-13 13:44:00,
2013-05-13 09:49:00,57.4,44.9,30.08,WNW,288,5.8,25.8,63,3.41,,,0.00,VWS V13.01,2013-05-13 13:49:00,
2013-05-13 09:54:00,57.3,44.5,30.08,NNW,336,6.6,25.8,62,3.41,,,0.00,VWS V13.01,2013-05-13 13:54:00,
2013-05-13 09:59:00,57.1,44.2,30.09,WNW,284,9.8,25.8,62,3.41,,,0.00,VWS V13.01,2013-05-13 13:59:00,
2013-05-13 10:04:00,57.1,44.3,30.08,NNW,333,5.5,25.8,62,3.41,,,0.00,VWS V13.01,2013-05-13 14:04:00,
2013-05-13 10:09:00,57.1,43.7,30.08,West,278,10.4,25.8,61,3.41,,,0.00,VWS V13.01,2013-05-13 14:09:00,
2013-05-13 10:14:00,57.1,44.0,30.08,WNW,283,7.4,25.8,62,3.41,,,0.00,VWS V13.01,2013-05-13 14:14:00,
2013-05-13 10:19:00,57.3,45.0,30.08,WNW,295,9.7,25.8,63,3.41,,,0.00,VWS V13.01,2013-05-13 14:19:00,
2013-05-13 10:24:00,57.7,44.9,30.08,WNW,284,7.6,25.8,62,3.41,,,0.00,VWS V13.01,2013-05-13 14:24:00,
2013-05-13 10:29:00,57.7,44.1,30.08,NW,308,3.5,25.8,60,3.41,,,0.00,VWS V13.01,2013-05-13 14:29:00,
2013-05-13 10:34:00,58.3,44.5,30.09,NW,321,6.1,25.8,60,3.41,,,0.00,VWS V13.01,2013-05-13 14:34:00,
2013-05-13 10:39:00,58.2,44.1,30.08,NW,323,5.3,25.8,59,3.41,,,0.00,VWS V13.01,2013-05-13 14:39:00,
2013-05-13 10:44:00,58.9,44.6,30.08,NW,311,7.9,25.8,59,3.41,,,0.00,VWS V13.01,2013-05-13 14:44:00,
2013-05-13 10:49:00,58.3,44.0,30.08,WNW,298,7.3,25.8,59,3.41,,,0.00,VWS V13.01,2013-05-13 14:49:00,
2013-05-13 10:54:00,58.4,44.5,30.08,NNW,329,3.9,25.8,60,3.41,,,0.00,VWS V13.01,2013-05-13 14:54:00,
2013-05-13 10:59:00,58.7,44.8,30.08,NW,315,6.2,25.8,60,3.41,,,0.00,VWS V13.01,2013-05-13 14:59:00,
2013-05-13 11:04:00,59.1,44.8,30.08,WNW,284,9.1,25.8,59,3.41,,,0.00,VWS V13.01,2013-05-13 15:04:00,
2013-05-13 11:09:00,59.2,45.0,30.08,WNW,302,8.7,25.8,59,3.41,,,0.00,VWS V13.01,2013-05-13 15:09:00,
2013-05-13 11:14:00,58.5,44.5,30.08,West,270,6.7,25.8,60,3.41,,,0.00,VWS V13.01,2013-05-13 15:14:00,
2013-05-13 11:19:00,57.9,44.2,30.09,West,273,9.1,25.8,60,3.41,,,0.00,VWS V13.01,2013-05-13 15:19:00,
2013-05-13 11:24:00,57.6,44.9,30.08,West,277,7.0,25.8,62,3.41,,,0.00,VWS V13.01,2013-05-13 15:24:00,
2013-05-13 11:29:00,58.0,45.0,30.08,West,269,7.5,25.8,62,3.41,,,0.00,VWS V13.01,2013-05-13 15:29:00,
2013-05-13 11:34:00,58.6,46.2,30.08,West,259,6.8,25.8,63,3.41,,,0.00,VWS V13.01,2013-05-13 15:34:00,
2013-05-13 11:39:00,59.6,48.3,30.08,NNW,329,6.3,25.8,66,3.41,,,0.00,VWS V13.01,2013-05-13 15:39:00,
2013-05-13 11:44:00,60.8,47.2,30.08,WNW,301,13.0,25.8,61,3.41,,,0.00,VWS V13.01,2013-05-13 15:44:00,
2013-05-13 11:49:00,61.5,47.9,30.08,WNW,290,7.3,25.8,61,3.41,,,0.00,VWS V13.01,2013-05-13 15:49:00,
2013-05-13 11:54:00,61.8,47.2,30.08,WNW,285,6.3,25.8,59,3.41,,,0.00,VWS V13.01,2013-05-13 15:54:00,
2013-05-13 11:59:00,61.8,46.5,30.08,NW,312,9.0,25.8,57,3.41,,,0.00,VWS V13.01,2013-05-13 15:59:00,
2013-05-13 12:04:00,61.6,46.7,30.08,NW,311,3.9,25.8,58,3.41,,,0.00,VWS V13.01,2013-05-13 16:04:00,
2013-05-13 12:09:00,61.4,46.7,30.08,NNW,333,4.9,25.8,58,3.41,,,0.00,VWS V13.01,2013-05-13 16:09:00,
2013-05-13 12:14:00,60.6,45.6,30.08,NNW,330,4.8,25.8,58,3.41,,,0.00,VWS V13.01,2013-05-13 16:14:00,
2013-05-13 12:19:00,59.8,44.7,30.07,NW,304,6.2,25.8,57,3.41,,,0.00,VWS V13.01,2013-05-13 16:19:00,
2013-05-13 12:24:00,59.2,44.9,30.08,NW,322,11.6,25.8,59,3.41,,,0.00,VWS V13.01,2013-05-13 16:24:00,
2013-05-13 12:29:00,58.8,44.2,30.08,NNW,335,7.5,25.8,58,3.41,,,0.00,VWS V13.01,2013-05-13 16:29:00,
2013-05-13 12:34:00,58.6,44.1,30.08,NW,323,9.1,25.8,58,3.41,,,0.00,VWS V13.01,2013-05-13 16:34:00,
2013-05-13 12:39:00,58.4,44.1,30.08,WNW,297,4.8,25.8,59,3.41,,,0.00,VWS V13.01,2013-05-13 16:39:00,
2013-05-13 12:44:00,58.3,44.1,30.08,West,281,7.5,25.8,59,3.41,,,0.00,VWS V13.01,2013-05-13 16:44:00,
2013-05-13 12:49:00,58.3,43.7,30.08,WNW,285,13.2,25.8,58,3.41,,,0.00,VWS V13.01,2013-05-13 16:49:00,
2013-05-13 12:54:00,58.5,43.7,30.08,WNW,294,8.9,25.8,58,3.41,,,0.00,VWS V13.01,2013-05-13 16:54:00,
2013-05-13 12:59:00,58.8,43.6,30.07,WNW,300,9.3,25.8,57,3.41,,,0.00,VWS V13.01,2013-05-13 16:59:00,
2013-05-13 13:04:00,58.9,44.0,30.07,NW,312,9.7,25.8,58,3.41,,,0.00,VWS V13.01,2013-05-13 17:04:00,
2013-05-13 13:09:00,59.2,44.4,30.07,NNW,345,6.3,25.8,58,3.41,,,0.00,VWS V13.01,2013-05-13 17:09:00,
2013-05-13 13:14:00,59.6,44.4,30.07,NW,316,9.4,25.8,57,3.41,,,0.00,VWS V13.01,2013-05-13 17:14:00,
2013-05-13 13:19:00,59.8,44.6,30.07,NW,305,7.6,25.8,57,3.41,,,0.00,VWS V13.01,2013-05-13 17:19:00,
2013-05-13 13:24:00,59.4,43.9,30.07,West,280,6.3,25.8,56,3.41,,,0.00,VWS V13.01,2013-05-13 17:24:00,
2013-05-13 13:29:00,58.9,44.0,30.06,NW,309,5.7,25.8,58,3.41,,,0.00,VWS V13.01,2013-05-13 17:29:00,
2013-05-13 13:34:00,59.6,44.9,30.06,NW,323,7.6,25.8,58,3.41,,,0.00,VWS V13.01,2013-05-13 17:34:00,
2013-05-13 13:38:00,59.9,44.1,30.07,West,278,6.2,25.8,56,3.41,,,0.00,VWS V13.01,2013-05-13 17:38:00,
2013-05-13 13:43:00,60.2,44.6,30.06,NW,312,10.6,25.8,56,3.41,,,0.00,VWS V13.01,2013-05-13 17:43:00,
2013-05-13 13:48:00,60.0,44.0,30.06,NW,312,9.9,25.8,55,3.41,,,0.00,VWS V13.01,2013-05-13 17:48:00,
2013-05-13 13:53:00,60.2,44.6,30.06,NNW,335,7.6,25.8,56,3.41,,,0.00,VWS V13.01,2013-05-13 17:53:00,
2013-05-13 13:58:00,60.3,44.1,30.06,North,359,7.5,25.8,55,3.41,,,0.00,VWS V13.01,2013-05-13 17:58:00,
2013-05-13 14:03:00,60.4,44.0,30.06,West,278,7.1,25.8,55,3.41,,,0.00,VWS V13.01,2013-05-13 18:03:00,
2013-05-13 14:08:00,59.9,43.5,30.06,NW,305,10.6,25.8,54,3.41,,,0.00,VWS V13.01,2013-05-13 18:08:00,
2013-05-13 14:13:00,59.4,44.0,30.06,West,281,7.4,25.8,57,3.41,,,0.00,VWS V13.01,2013-05-13 18:13:00,
2013-05-13 14:18:00,59.4,43.9,30.06,WNW,291,0.0,25.8,56,3.41,,,0.00,VWS V13.01,2013-05-13 18:18:00,
2013-05-13 14:23:00,59.5,43.7,30.06,NW,312,3.2,25.8,56,3.41,,,0.00,VWS V13.01,2013-05-13 18:23:00,
2013-05-13 14:28:00,59.3,43.9,30.06,NW,311,5.7,25.8,57,3.41,,,0.00,VWS V13.01,2013-05-13 18:28:00,
2013-05-13 14:33:00,58.9,43.4,30.06,WNW,295,11.9,25.8,56,3.41,,,0.00,VWS V13.01,2013-05-13 18:33:00,
2013-05-13 14:38:00,58.7,43.3,30.06,NW,325,8.3,25.8,57,3.41,,,0.00,VWS V13.01,2013-05-13 18:38:00,
2013-05-13 14:43:00,58.7,43.2,30.06,NNW,332,7.6,25.8,56,3.41,,,0.00,VWS V13.01,2013-05-13 18:43:00,
2013-05-13 14:48:00,58.6,43.2,30.06,WNW,302,6.7,25.8,57,3.41,,,0.00,VWS V13.01,2013-05-13 18:48:00,
2013-05-13 14:53:00,58.8,43.0,30.06,NW,316,4.5,25.8,56,3.41,,,0.00,VWS V13.01,2013-05-13 18:53:00,
2013-05-13 14:58:00,59.1,43.2,30.06,WNW,302,6.6,25.8,55,3.41,,,0.00,VWS V13.01,2013-05-13 18:58:00,
2013-05-13 15:03:00,59.2,42.7,30.06,NW,311,7.3,25.8,54,3.41,,,0.00,VWS V13.01,2013-05-13 19:03:00,
2013-05-13 15:08:00,59.6,43.0,30.05,NE,37,5.8,25.8,54,3.41,,,0.00,VWS V13.01,2013-05-13 19:08:00,
2013-05-13 15:13:00,59.6,42.8,30.05,NW,318,7.3,25.8,54,3.41,,,0.00,VWS V13.01,2013-05-13 19:13:00,
2013-05-13 15:18:00,59.4,43.2,30.05,North,353,8.1,25.8,55,3.41,,,0.00,VWS V13.01,2013-05-13 19:18:00,
2013-05-13 15:23:00,59.0,42.8,30.05,West,271,6.3,25.8,55,3.41,,,0.00,VWS V13.01,2013-05-13 19:23:00,
2013-05-13 15:28:00,58.6,42.5,30.05,NNW,338,6.0,25.8,55,3.41,,,0.00,VWS V13.01,2013-05-13 19:28:00,
2013-05-13 15:33:00,58.7,42.4,30.05,NW,305,8.6,25.8,54,3.41,,,0.00,VWS V13.01,2013-05-13 19:33:00,
2013-05-13 15:38:00,58.6,42.5,30.05,NW,319,3.4,25.8,55,3.41,,,0.00,VWS V13.01,2013-05-13 19:38:00,
2013-05-13 15:43:00,58.4,42.2,30.05,WNW,294,3.0,25.8,55,3.41,,,0.00,VWS V13.01,2013-05-13 19:43:00,
2013-05-13 15:48:00,58.0,42.3,30.05,NW,305,9.0,25.8,56,3.41,,,0.00,VWS V13.01,2013-05-13 19:48:00,
2013-05-13 15:53:00,57.9,42.0,30.05,NW,312,5.2,25.8,55,3.41,,,0.00,VWS V13.01,2013-05-13 19:53:00,
2013-05-13 15:58:00,57.8,41.8,30.05,North,359,7.0,25.8,55,3.41,,,0.00,VWS V13.01,2013-05-13 19:58:00,
2013-05-13 16:03:00,57.8,41.9,30.05,NNW,346,4.5,25.8,55,3.41,,,0.00,VWS V13.01,2013-05-13 20:03:00,
2013-05-13 16:08:00,57.7,42.1,30.05,WNW,291,6.3,25.8,56,3.41,,,0.00,VWS V13.01,2013-05-13 20:08:00,
2013-05-13 16:13:00,57.7,41.9,30.05,NW,326,7.8,25.8,56,3.41,,,0.00,VWS V13.01,2013-05-13 20:13:00,
2013-05-13 16:18:00,57.3,41.6,30.05,WNW,287,11.7,25.8,56,3.41,,,0.00,VWS V13.01,2013-05-13 20:18:00,
2013-05-13 16:23:00,57.3,42.0,30.05,WNW,292,11.8,25.8,56,3.41,,,0.00,VWS V13.01,2013-05-13 20:23:00,
2013-05-13 16:28:00,57.1,41.5,30.05,West,280,8.3,25.8,56,3.41,,,0.00,VWS V13.01,2013-05-13 20:28:00,
2013-05-13 16:33:00,57.2,42.1,30.05,NW,309,6.5,25.8,57,3.41,,,0.00,VWS V13.01,2013-05-13 20:33:00,
2013-05-13 16:38:00,57.1,41.5,30.05,NW,314,6.1,25.8,56,3.41,,,0.00,VWS V13.01,2013-05-13 20:38:00,
2013-05-13 16:43:00,57.1,41.4,30.05,NNW,336,7.6,25.8,56,3.41,,,0.00,VWS V13.01,2013-05-13 20:43:00,
2013-05-13 16:48:00,57.2,41.9,30.05,NNW,338,4.4,25.8,56,3.41,,,0.00,VWS V13.01,2013-05-13 20:48:00,
2013-05-13 16:53:00,57.2,42.2,30.05,NW,321,4.5,25.8,57,3.41,,,0.00,VWS V13.01,2013-05-13 20:53:00,
2013-05-13 16:58:00,57.4,41.6,30.05,NNW,329,3.3,25.8,56,3.41,,,0.00,VWS V13.01,2013-05-13 20:58:00,
2013-05-13 17:03:00,57.3,41.6,30.05,North,352,6.3,25.8,56,3.41,,,0.00,VWS V13.01,2013-05-13 21:03:00,
2013-05-13 17:08:00,57.3,41.2,30.05,NNW,340,5.5,25.8,55,3.41,,,0.00,VWS V13.01,2013-05-13 21:08:00,
2013-05-13 17:13:00,57.1,41.3,30.05,NNW,333,5.8,25.8,55,3.41,,,0.00,VWS V13.01,2013-05-13 21:13:00,
2013-05-13 17:18:00,57.0,41.3,30.05,NNW,336,6.2,25.8,56,3.41,,,0.00,VWS V13.01,2013-05-13 21:18:00,
2013-05-13 17:23:00,56.8,41.1,30.05,NW,318,6.7,25.8,56,3.41,,,0.00,VWS V13.01,2013-05-13 21:23:00,
2013-05-13 17:28:00,57.0,41.2,30.05,North,354,8.3,25.8,55,3.41,,,0.00,VWS V13.01,2013-05-13 21:28:00,
2013-05-13 17:33:00,57.2,41.8,30.05,NNW,330,8.7,25.8,56,3.41,,,0.00,VWS V13.01,2013-05-13 21:33:00,
2013-05-13 17:38:00,56.8,40.9,30.05,North,359,3.0,25.8,55,3.41,,,0.00,VWS V13.01,2013-05-13 21:38:00,
2013-05-13 17:43:00,57.0,41.3,30.05,North,350,7.6,25.8,56,3.41,,,0.00,VWS V13.01,2013-05-13 21:43:00,
2013-05-13 17:48:00,56.8,41.3,30.05,North,359,6.9,25.8,56,3.41,,,0.00,VWS V13.01,2013-05-13 21:48:00,
2013-05-13 17:53:00,57.1,41.3,30.05,North,356,3.3,25.8,56,3.41,,,0.00,VWS V13.01,2013-05-13 21:53:00,
2013-05-13 17:58:00,56.9,41.0,30.04,NNW,347,1.9,25.8,55,3.41,,,0.00,VWS V13.01,2013-05-13 21:58:00,
2013-05-13 18:03:00,56.4,40.5,30.05,NW,318,7.9,25.8,55,3.41,,,0.00,VWS V13.01,2013-05-13 22:03:00,
2013-05-13 18:08:00,56.4,40.6,30.05,NNW,329,8.0,25.8,55,3.41,,,0.00,VWS V13.01,2013-05-13 22:08:00,
2013-05-13 18:13:00,56.1,40.3,30.05,WNW,298,0.0,25.8,55,3.41,,,0.00,VWS V13.01,2013-05-13 22:13:00,
2013-05-13 18:18:00,56.1,40.4,30.05,NW,321,3.2,25.8,55,3.41,,,0.00,VWS V13.01,2013-05-13 22:18:00,
2013-05-13 18:23:00,56.1,40.6,30.05,North,8,4.3,25.8,56,3.41,,,0.00,VWS V13.01,2013-05-13 22:23:00,
2013-05-13 18:28:00,55.9,40.4,30.05,NNW,336,4.3,25.8,56,3.41,,,0.00,VWS V13.01,2013-05-13 22:28:00,
2013-05-13 18:33:00,56.0,39.9,30.05,NNE,20,2.9,25.8,55,3.41,,,0.00,VWS V13.01,2013-05-13 22:33:00,
2013-05-13 18:38:00,56.0,39.8,30.05,NNE,14,2.1,25.8,54,3.41,,,0.00,VWS V13.01,2013-05-13 22:38:00,
2013-05-13 18:43:00,55.9,39.8,30.05,NNW,339,7.8,25.8,54,3.41,,,0.00,VWS V13.01,2013-05-13 22:43:00,
2013-05-13 18:48:00,55.8,39.8,30.05,NW,305,5.5,25.8,55,3.41,,,0.00,VWS V13.01,2013-05-13 22:48:00,
2013-05-13 18:53:00,55.7,39.8,30.05,NNW,333,5.2,25.8,55,3.41,,,0.00,VWS V13.01,2013-05-13 22:53:00,
2013-05-13 18:58:00,55.5,39.6,30.05,NW,321,6.4,25.8,55,3.41,,,0.00,VWS V13.01,2013-05-13 22:58:00,
2013-05-13 19:03:00,55.4,39.5,30.05,NNW,335,3.5,25.8,55,3.41,,,0.00,VWS V13.01,2013-05-13 23:03:00,
2013-05-13 19:08:00,55.3,39.3,30.05,NNW,343,7.0,25.8,55,3.41,,,0.00,VWS V13.01,2013-05-13 23:08:00,
2013-05-13 19:13:00,54.9,39.2,30.05,NNE,24,4.2,25.8,55,3.41,,,0.00,VWS V13.01,2013-05-13 23:13:00,
2013-05-13 19:18:00,55.1,39.6,30.06,NE,52,6.2,25.8,56,3.41,,,0.00,VWS V13.01,2013-05-13 23:18:00,
2013-05-13 19:23:00,54.9,39.3,30.06,North,352,0.0,25.8,56,3.41,,,0.00,VWS V13.01,2013-05-13 23:23:00,
2013-05-13 19:28:00,55.0,39.5,30.06,NNW,346,7.5,25.8,56,3.41,,,0.00,VWS V13.01,2013-05-13 23:28:00,
2013-05-13 19:33:00,54.8,39.4,30.06,NW,307,4.0,25.8,56,3.41,,,0.00,VWS V13.01,2013-05-13 23:33:00,
2013-05-13 19:38:00,54.5,39.5,30.06,NNW,345,2.7,25.8,57,3.41,,,0.00,VWS V13.01,2013-05-13 23:38:00,
2013-05-13 19:43:00,54.6,39.9,30.06,NNW,329,1.1,25.8,58,3.41,,,0.00,VWS V13.01,2013-05-13 23:43:00,
2013-05-13 19:48:00,54.5,40.0,30.06,NW,304,0.0,25.8,58,3.41,,,0.00,VWS V13.01,2013-05-13 23:48:00,
2013-05-13 19:53:00,54.3,40.1,30.07,WNW,291,0.0,25.8,59,3.41,,,0.00,VWS V13.01,2013-05-13 23:53:00,
2013-05-13 19:57:00,54.3,40.2,30.07,NNW,342,1.9,25.8,59,3.41,,,0.00,VWS V13.01,2013-05-13 23:57:00,
2013-05-13 20:02:00,54.0,40.1,30.07,NNW,332,1.3,25.8,59,3.41,,,0.00,VWS V13.01,2013-05-14 00:02:00,
2013-05-13 20:07:00,53.9,40.3,30.07,NNW,343,2.9,25.8,60,3.41,,,0.00,VWS V13.01,2013-05-14 00:07:00,
2013-05-13 20:12:00,53.8,40.5,30.08,WNW,302,2.2,25.8,60,3.41,,,0.00,VWS V13.01,2013-05-14 00:12:00,
2013-05-13 20:17:00,53.6,40.5,30.08,WNW,294,0.0,25.8,61,3.41,,,0.00,VWS V13.01,2013-05-14 00:17:00,
2013-05-13 20:22:00,53.4,40.5,30.08,WNW,294,0.0,25.8,61,3.41,,,0.00,VWS V13.01,2013-05-14 00:22:00,
2013-05-13 20:27:00,53.2,40.4,30.08,NNW,339,0.0,25.8,62,3.41,,,0.00,VWS V13.01,2013-05-14 00:27:00,
2013-05-13 20:32:00,52.9,40.4,30.08,NNW,339,0.0,25.8,62,3.41,,,0.00,VWS V13.01,2013-05-14 00:32:00,
2013-05-13 20:37:00,53.0,40.7,30.09,North,359,0.0,25.8,63,3.41,,,0.00,VWS V13.01,2013-05-14 00:37:00,
2013-05-13 20:42:00,52.9,40.7,30.09,North,359,0.0,25.8,63,3.41,,,0.00,VWS V13.01,2013-05-14 00:42:00,
2013-05-13 20:47:00,52.7,40.8,30.09,North,359,0.0,25.8,64,3.41,,,0.00,VWS V13.01,2013-05-14 00:47:00,
2013-05-13 20:52:00,52.5,40.7,30.10,NNW,332,6.0,25.8,64,3.41,,,0.00,VWS V13.01,2013-05-14 00:52:00,
2013-05-13 20:57:00,52.2,40.4,30.10,NNW,346,1.8,25.8,64,3.41,,,0.00,VWS V13.01,2013-05-14 00:57:00,
2013-05-13 21:02:00,52.1,40.5,30.10,NNW,336,3.9,25.8,64,3.41,,,0.00,VWS V13.01,2013-05-14 01:02:00,
2013-05-13 21:07:00,51.9,40.4,30.10,NW,323,3.2,25.8,65,3.41,,,0.00,VWS V13.01,2013-05-14 01:07:00,
2013-05-13 21:12:00,52.2,40.9,30.11,NW,325,2.7,25.8,65,3.41,,,0.00,VWS V13.01,2013-05-14 01:12:00,
2013-05-13 21:17:00,52.0,41.0,30.11,North,359,0.0,25.8,66,3.41,,,0.00,VWS V13.01,2013-05-14 01:17:00,
2013-05-13 21:22:00,52.1,41.6,30.11,NW,319,0.0,25.8,67,3.41,,,0.00,VWS V13.01,2013-05-14 01:22:00,
2013-05-13 21:27:00,51.8,41.3,30.12,NW,319,0.0,25.8,67,3.41,,,0.00,VWS V13.01,2013-05-14 01:27:00,
2013-05-13 21:32:00,51.7,41.4,30.12,North,359,1.4,25.8,68,3.41,,,0.00,VWS V13.01,2013-05-14 01:32:00,
2013-05-13 21:37:00,51.6,41.4,30.13,North,352,0.0,25.8,68,3.41,,,0.00,VWS V13.01,2013-05-14 01:37:00,
2013-05-13 21:42:00,51.6,41.5,30.13,NW,307,0.0,25.8,68,3.41,,,0.00,VWS V13.01,2013-05-14 01:42:00,
2013-05-13 21:47:00,51.4,41.7,30.13,WNW,294,0.7,25.8,69,3.41,,,0.00,VWS V13.01,2013-05-14 01:47:00,
2013-05-13 21:52:00,51.1,41.5,30.13,NW,325,0.0,25.8,70,3.41,,,0.00,VWS V13.01,2013-05-14 01:52:00,
2013-05-13 21:57:00,51.1,41.8,30.13,North,352,1.1,25.8,70,3.41,,,0.00,VWS V13.01,2013-05-14 01:57:00,
2013-05-13 22:02:00,50.7,41.6,30.13,North,349,1.4,25.8,71,3.41,,,0.00,VWS V13.01,2013-05-14 02:02:00,
2013-05-13 22:07:00,50.3,41.5,30.13,NW,316,0.0,25.8,72,3.41,,,0.00,VWS V13.01,2013-05-14 02:07:00,
2013-05-13 22:12:00,50.2,41.7,30.13,NW,314,0.0,25.8,72,3.41,,,0.00,VWS V13.01,2013-05-14 02:12:00,
2013-05-13 22:17:00,50.0,41.6,30.13,NNW,329,0.0,25.8,73,3.41,,,0.00,VWS V13.01,2013-05-14 02:17:00,
2013-05-13 22:22:00,50.1,41.7,30.13,NNW,340,1.7,25.8,73,3.41,,,0.00,VWS V13.01,2013-05-14 02:22:00,
2013-05-13 22:27:00,49.9,41.7,30.13,NNW,340,3.5,25.8,73,3.41,,,0.00,VWS V13.01,2013-05-14 02:27:00,
2013-05-13 22:32:00,49.9,41.8,30.14,NW,311,0.0,25.8,74,3.41,,,0.00,VWS V13.01,2013-05-14 02:32:00,
2013-05-13 22:37:00,49.6,41.7,30.13,WNW,300,0.0,25.8,74,3.41,,,0.00,VWS V13.01,2013-05-14 02:37:00,
2013-05-13 22:42:00,49.6,41.9,30.13,NW,314,0.0,25.8,75,3.41,,,0.00,VWS V13.01,2013-05-14 02:42:00,
2013-05-13 22:47:00,49.5,42.0,30.13,NW,316,0.0,25.8,75,3.41,,,0.00,VWS V13.01,2013-05-14 02:47:00,
2013-05-13 22:52:00,49.3,41.7,30.13,WNW,302,0.0,25.8,75,3.41,,,0.00,VWS V13.01,2013-05-14 02:52:00,
2013-05-13 22:57:00,49.4,41.8,30.13,WNW,285,2.7,25.8,75,3.41,,,0.00,VWS V13.01,2013-05-14 02:57:00,
2013-05-13 23:02:00,49.2,41.7,30.13,NW,326,0.0,25.8,75,3.41,,,0.00,VWS V13.01,2013-05-14 03:02:00,
2013-05-13 23:07:00,49.1,41.9,30.13,NW,326,0.0,25.8,76,3.41,,,0.00,VWS V13.01,2013-05-14 03:07:00,
2013-05-13 23:12:00,49.1,41.9,30.13,NW,326,0.0,25.8,76,3.41,,,0.00,VWS V13.01,2013-05-14 03:12:00,
2013-05-13 23:17:00,49.0,41.9,30.13,North,353,2.1,25.8,76,3.41,,,0.00,VWS V13.01,2013-05-14 03:17:00,
2013-05-13 23:22:00,48.8,41.9,30.13,NW,308,0.0,25.8,77,3.41,,,0.00,VWS V13.01,2013-05-14 03:22:00,
2013-05-13 23:27:00,48.5,41.7,30.13,North,353,0.0,25.8,77,3.41,,,0.00,VWS V13.01,2013-05-14 03:27:00,
2013-05-13 23:32:00,48.3,41.7,30.13,WNW,297,2.1,25.8,78,3.41,,,0.00,VWS V13.01,2013-05-14 03:32:00,
2013-05-13 23:37:00,48.1,41.6,30.13,West,278,0.0,25.8,78,3.41,,,0.00,VWS V13.01,2013-05-14 03:37:00,
2013-05-13 23:42:00,48.0,41.5,30.13,NW,318,0.0,25.8,78,3.41,,,0.00,VWS V13.01,2013-05-14 03:42:00,
2013-05-13 23:47:00,47.8,41.5,30.13,NW,304,0.0,25.8,79,3.41,,,0.00,VWS V13.01,2013-05-14 03:47:00,
2013-05-13 23:52:00,47.6,41.5,30.14,NW,312,0.0,25.8,79,3.41,,,0.00,VWS V13.01,2013-05-14 03:52:00,
2013-05-13 23:57:00,47.5,41.5,30.14,NW,315,0.0,25.8,80,3.41,,,0.00,VWS V13.01,2013-05-14 03:57:00,